Time,TemperatureF,DewpointF,PressureIn,WindDirection,WindDirectionDegrees,WindSpeedMPH,WindSpeedGustMPH,Humidity,HourlyPrecipIn,Conditions,Clouds,dailyrainin,SoftwareType,DateUTC
2013-09-25 00:13:00,44.7,41.0,29.96,NNW,333,0.0,-999.0,88,-99.99,,,0.00,weatherlink.com 1.10,2013-09-25 04:13:00,
2013-09-25 00:28:00,44.3,41.0,29.97,NNW,333,0.0,-999.0,89,-99.99,,,0.00,weatherlink.com 1.10,2013-09-25 04:28:00,
2013-09-25 00:43:00,44.2,41.0,29.97,NNW,333,0.0,-999.0,89,-99.99,,,0.00,weatherlink.com 1.10,2013-09-25 04:43:00,
2013-09-25 00:58:00,43.8,41.0,29.97,NNW,333,0.0,-999.0,89,-99.99,,,0.00,weatherlink.com 1.10,2013-09-25 04:58:00,
2013-09-25 01:13:00,43.4,40.0,29.98,NNW,333,0.0,-999.0,89,-99.99,,,0.00,weatherlink.com 1.10,2013-09-25 05:13:00,
2013-09-25 01:28:00,43.2,41.0,29.98,NNW,333,0.0,-999.0,90,-99.99,,,0.00,weatherlink.com 1.10,2013-09-25 05:28:00,
2013-09-25 01:43:00,42.9,40.0,29.99,NNW,333,0.0,-999.0,90,-99.99,,,0.00,weatherlink.com 1.10,2013-09-25 05:43:00,
2013-09-25 01:58:00,42.3,40.0,29.99,NNW,333,0.0,-999.0,90,-99.99,,,0.00,weatherlink.com 1.10,2013-09-25 05:58:00,
2013-09-25 02:13:00,42.0,39.0,30.00,NNW,333,0.0,-999.0,90,-99.99,,,0.00,weatherlink.com 1.10,2013-09-25 06:13:00,
2013-09-25 02:28:00,41.7,39.0,30.00,NNW,333,0.0,-999.0,90,-99.99,,,0.00,weatherlink.com 1.10,2013-09-25 06:28:00,
2013-09-25 02:43:00,41.4,39.0,30.00,NNW,333,0.0,-999.0,91,-99.99,,,0.00,weatherlink.com 1.10,2013-09-25 06:43:00,
2013-09-25 02:58:00,41.1,38.0,30.00,NNW,333,0.0,-999.0,90,-99.99,,,0.00,weatherlink.com 1.10,2013-09-25 06:58:00,
2013-09-25 03:13:00,40.8,38.0,30.00,NNW,333,0.0,-999.0,91,-99.99,,,0.00,weatherlink.com 1.10,2013-09-25 07:13:00,
2013-09-25 03:29:00,40.6,38.0,29.99,NNW,333,0.0,-999.0,91,-99.99,,,0.00,weatherlink.com 1.10,2013-09-25 07:29:00,
2013-09-25 03:44:00,40.3,38.0,29.99,NNW,333,0.0,-999.0,91,-99.99,,,0.00,weatherlink.com 1.10,2013-09-25 07:44:00,
2013-09-25 03:59:00,39.9,38.0,29.99,NNW,333,0.0,-999.0,92,-99.99,,,0.00,weatherlink.com 1.10,2013-09-25 07:59:00,
2013-09-25 04:14:00,39.8,38.0,29.99,NNW,333,0.0,-999.0,92,-99.99,,,0.00,weatherlink.com 1.10,2013-09-25 08:14:00,
2013-09-25 04:29:00,39.4,37.0,29.99,NNW,333,0.0,-999.0,92,-99.99,,,0.00,weatherlink.com 1.10,2013-09-25 08:29:00,
2013-09-25 04:44:00,39.1,37.0,29.99,NNW,333,0.0,-999.0,92,-99.99,,,0.00,weatherlink.com 1.10,2013-09-25 08:44:00,
2013-09-25 04:59:00,38.8,37.0,29.98,NNW,333,0.0,-999.0,92,-99.99,,,0.00,weatherlink.com 1.10,2013-09-25 08:59:00,
2013-09-25 05:14:00,38.6,37.0,29.98,NNW,333,0.0,-999.0,92,-99.99,,,0.00,weatherlink.com 1.10,2013-09-25 09:14:00,
2013-09-25 05:29:00,38.5,36.0,29.98,NNW,333,0.0,-999.0,92,-99.99,,,0.00,weatherlink.com 1.10,2013-09-25 09:29:00,
2013-09-25 05:44:00,38.2,36.0,29.99,NNW,333,0.0,-999.0,92,-99.99,,,0.00,weatherlink.com 1.10,2013-09-25 09:44:00,
2013-09-25 05:59:00,38.0,36.0,29.99,NNW,333,0.0,-999.0,92,-99.99,,,0.00,weatherlink.com 1.10,2013-09-25 09:59:00,
2013-09-25 06:14:00,37.9,36.0,29.99,NNW,333,0.0,-999.0,92,-99.99,,,0.00,weatherlink.com 1.10,2013-09-25 10:14:00,
2013-09-25 06:29:00,37.9,36.0,30.00,NNW,333,0.0,-999.0,92,-99.99,,,0.00,weatherlink.com 1.10,2013-09-25 10:29:00,
2013-09-25 06:44:00,37.8,36.0,30.00,NNW,333,0.0,-999.0,92,-99.99,,,0.00,weatherlink.com 1.10,2013-09-25 10:44:00,
2013-09-25 06:59:00,37.8,36.0,30.00,NNW,333,0.0,-999.0,92,-99.99,,,0.00,weatherlink.com 1.10,2013-09-25 10:59:00,
2013-09-25 07:14:00,37.9,36.0,30.00,NNW,333,0.0,-999.0,93,-99.99,,,0.00,weatherlink.com 1.10,2013-09-25 11:14:00,
2013-09-25 07:29:00,38.0,36.0,30.00,NNW,333,0.0,-999.0,93,-99.99,,,0.00,weatherlink.com 1.10,2013-09-25 11:29:00,
2013-09-25 07:44:00,38.5,37.0,30.00,NNW,333,0.0,-999.0,93,-99.99,,,0.00,weatherlink.com 1.10,2013-09-25 11:44:00,
2013-09-25 07:59:00,39.1,38.0,30.00,NNW,333,0.0,-999.0,94,-99.99,,,0.00,weatherlink.com 1.10,2013-09-25 11:59:00,
2013-09-25 08:14:00,40.1,39.0,30.00,NNW,333,0.0,-999.0,94,-99.99,,,0.00,weatherlink.com 1.10,2013-09-25 12:14:00,
2013-09-25 08:29:00,41.6,40.0,30.01,NNW,333,0.0,-999.0,94,-99.99,,,0.00,weatherlink.com 1.10,2013-09-25 12:29:00,
2013-09-25 08:44:00,43.8,42.0,30.01,NNW,333,0.0,-999.0,94,-99.99,,,0.00,weatherlink.com 1.10,2013-09-25 12:44:00,
2013-09-25 08:59:00,45.0,44.0,30.01,NNW,333,0.0,-999.0,95,-99.99,,,0.00,weatherlink.com 1.10,2013-09-25 12:59:00,
2013-09-25 09:14:00,46.1,45.0,30.00,NNW,333,0.0,-999.0,95,-99.99,,,0.00,weatherlink.com 1.10,2013-09-25 13:14:00,
2013-09-25 09:29:00,48.1,47.0,30.00,NNW,333,0.0,-999.0,95,-99.99,,,0.00,weatherlink.com 1.10,2013-09-25 13:29:00,
2013-09-25 09:44:00,49.4,48.0,30.00,West,273,1.0,-999.0,94,-99.99,,,0.00,weatherlink.com 1.10,2013-09-25 13:44:00,
2013-09-25 09:59:00,50.3,48.0,30.00,WSW,244,0.0,-999.0,92,-99.99,,,0.00,weatherlink.com 1.10,2013-09-25 13:59:00,
2013-09-25 10:14:00,51.2,48.0,30.00,WNW,292,2.0,-999.0,89,-99.99,,,0.00,weatherlink.com 1.10,2013-09-25 14:14:00,
2013-09-25 10:29:00,52.8,48.0,30.00,SW,232,0.0,-999.0,83,-99.99,,,0.00,weatherlink.com 1.10,2013-09-25 14:29:00,
2013-09-25 10:44:00,54.1,48.0,30.00,SW,233,1.0,-999.0,79,-99.99,,,0.00,weatherlink.com 1.10,2013-09-25 14:44:00,
2013-09-25 10:59:00,56.2,48.0,30.00,SW,229,3.0,-999.0,73,-99.99,,,0.00,weatherlink.com 1.10,2013-09-25 14:59:00,
2013-09-25 11:14:00,58.1,48.0,29.99,WSW,257,0.0,-999.0,70,-99.99,,,0.00,weatherlink.com 1.10,2013-09-25 15:14:00,
2013-09-25 11:29:00,59.1,48.0,29.99,WNW,296,3.0,-999.0,68,-99.99,,,0.00,weatherlink.com 1.10,2013-09-25 15:29:00,
2013-09-25 11:45:00,60.0,49.0,29.99,SW,228,5.0,-999.0,66,-99.99,,,0.00,weatherlink.com 1.10,2013-09-25 15:45:00,
2013-09-25 12:00:00,61.7,50.0,29.99,WSW,251,3.0,-999.0,65,-99.99,,,0.00,weatherlink.com 1.10,2013-09-25 16:00:00,
2013-09-25 12:15:00,62.2,50.0,29.98,WSW,244,0.0,-999.0,64,-99.99,,,0.00,weatherlink.com 1.10,2013-09-25 16:15:00,
2013-09-25 12:30:00,63.9,50.0,29.98,NW,306,4.0,-999.0,62,-99.99,,,0.00,weatherlink.com 1.10,2013-09-25 16:30:00,
2013-09-25 12:45:00,65.2,50.0,29.97,West,261,1.0,-999.0,59,-99.99,,,0.00,weatherlink.com 1.10,2013-09-25 16:45:00,
2013-09-25 13:00:00,66.7,51.0,29.97,SSW,196,0.0,-999.0,57,-99.99,,,0.00,weatherlink.com 1.10,2013-09-25 17:00:00,
2013-09-25 13:15:00,67.8,50.0,29.96,West,262,0.0,-999.0,54,-99.99,,,0.00,weatherlink.com 1.10,2013-09-25 17:15:00,
2013-09-25 13:30:00,69.0,50.0,29.95,SW,224,0.0,-999.0,51,-99.99,,,0.00,weatherlink.com 1.10,2013-09-25 17:30:00,
2013-09-25 13:45:00,70.2,49.0,29.94,West,270,0.0,-999.0,48,-99.99,,,0.00,weatherlink.com 1.10,2013-09-25 17:45:00,
2013-09-25 14:00:00,70.1,50.0,29.93,South,180,0.0,-999.0,49,-99.99,,,0.00,weatherlink.com 1.10,2013-09-25 18:00:00,
2013-09-25 14:15:00,71.7,51.0,29.92,NNE,30,0.0,-999.0,48,-99.99,,,0.00,weatherlink.com 1.10,2013-09-25 18:15:00,
2013-09-25 14:30:00,72.0,51.0,29.92,NNE,17,1.0,-999.0,48,-99.99,,,0.00,weatherlink.com 1.10,2013-09-25 18:30:00,
2013-09-25 14:45:00,72.8,52.0,29.91,South,186,1.0,-999.0,48,-99.99,,,0.00,weatherlink.com 1.10,2013-09-25 18:45:00,
2013-09-25 15:00:00,73.7,53.0,29.90,NE,41,0.0,-999.0,49,-99.99,,,0.00,weatherlink.com 1.10,2013-09-25 19:00:00,
2013-09-25 15:16:00,75.3,51.9,29.90,ENE,61,0.0,0.0,44,0.00,,,0.00,Wunderground v.1.15,2013-09-25 19:16:00,
2013-09-25 15:25:00,75.5,52.7,29.89,ENE,57,0.0,0.0,45,0.00,,,0.00,Wunderground v.1.15,2013-09-25 19:25:00,
2013-09-25 15:30:00,75.6,52.0,29.89,ENE,58,0.0,-999.0,44,-99.99,,,0.00,weatherlink.com 1.10,2013-09-25 19:30:00,
2013-09-25 15:40:00,75.4,52.0,29.89,NE,36,0.0,0.0,44,0.00,,,0.00,Wunderground v.1.15,2013-09-25 19:40:00,
2013-09-25 15:45:00,76.2,52.1,29.89,SSW,207,1.0,1.0,43,0.00,,,0.00,Wunderground v.1.15,2013-09-25 19:45:00,
2013-09-25 15:47:00,76.5,53.0,29.89,SSW,209,0.0,-999.0,44,-99.99,,,0.00,weatherlink.com 1.10,2013-09-25 19:47:00,
2013-09-25 15:55:00,77.1,51.6,29.89,NE,42,1.0,2.0,41,0.00,,,0.00,Wunderground v.1.15,2013-09-25 19:55:00,
2013-09-25 16:00:00,77.2,52.3,29.89,NE,54,1.0,1.0,42,0.00,,,0.00,Wunderground v.1.15,2013-09-25 20:00:00,
2013-09-25 16:01:00,77.5,55.0,29.89,ENE,78,0.0,-999.0,46,-99.99,,,0.00,weatherlink.com 1.10,2013-09-25 20:01:00,
2013-09-25 16:05:00,77.8,53.5,29.89,ENE,76,0.0,1.0,43,0.00,,,0.00,Wunderground v.1.15,2013-09-25 20:05:00,
2013-09-25 16:10:00,78.2,51.9,29.89,ENE,74,0.0,1.0,40,0.00,,,0.00,Wunderground v.1.15,2013-09-25 20:10:00,
2013-09-25 16:16:00,77.7,51.0,29.89,ENE,74,0.0,-999.0,40,-99.99,,,0.00,weatherlink.com 1.10,2013-09-25 20:16:00,
2013-09-25 16:25:00,78.0,51.0,29.88,NNW,340,1.0,1.0,39,0.00,,,0.00,Wunderground v.1.15,2013-09-25 20:25:00,
2013-09-25 16:30:00,78.0,51.0,29.88,NNE,29,0.0,0.0,39,0.00,,,0.00,Wunderground v.1.15,2013-09-25 20:30:00,
2013-09-25 16:31:00,77.9,52.0,29.88,NNE,30,2.0,-999.0,40,-99.99,,,0.00,weatherlink.com 1.10,2013-09-25 20:31:00,
2013-09-25 16:35:00,78.2,52.6,29.88,ESE,108,0.0,0.0,41,0.00,,,0.00,Wunderground v.1.15,2013-09-25 20:35:00,
2013-09-25 16:40:00,78.5,50.8,29.88,NW,321,1.0,1.0,38,0.00,,,0.00,Wunderground v.1.15,2013-09-25 20:40:00,
2013-09-25 16:45:00,78.5,51.5,29.88,NW,321,1.0,1.0,39,0.00,,,0.00,Wunderground v.1.15,2013-09-25 20:45:00,
2013-09-25 16:46:00,78.5,53.0,29.88,NW,321,0.0,-999.0,41,-99.99,,,0.00,weatherlink.com 1.10,2013-09-25 20:46:00,
2013-09-25 16:55:00,78.0,51.0,29.88,NNE,17,1.0,1.0,39,0.00,,,0.00,Wunderground v.1.15,2013-09-25 20:55:00,
2013-09-25 17:00:00,77.5,50.6,29.88,NE,44,1.0,1.0,39,0.00,,,0.00,Wunderground v.1.15,2013-09-25 21:00:00,
2013-09-25 17:02:00,77.2,50.0,29.88,NE,53,0.0,-999.0,39,-99.99,,,0.00,weatherlink.com 1.10,2013-09-25 21:02:00,
2013-09-25 17:05:00,76.7,51.2,29.88,North,349,0.0,4.0,41,0.00,,,0.00,Wunderground v.1.15,2013-09-25 21:05:00,
2013-09-25 17:15:00,76.5,50.4,29.88,North,349,1.0,1.0,40,0.00,,,0.00,Wunderground v.1.15,2013-09-25 21:15:00,
2013-09-25 17:20:00,76.5,49.7,29.88,NNW,337,0.0,0.0,39,0.00,,,0.00,Wunderground v.1.15,2013-09-25 21:20:00,
2013-09-25 17:30:00,76.2,53.3,29.88,NNW,337,0.0,0.0,45,0.00,,,0.00,Wunderground v.1.15,2013-09-25 21:30:00,
2013-09-25 17:31:00,76.1,53.0,29.88,NNW,337,0.0,-999.0,44,-99.99,,,0.00,weatherlink.com 1.10,2013-09-25 21:31:00,
2013-09-25 17:40:00,75.4,53.2,29.88,NNW,337,0.0,0.0,46,0.00,,,0.00,Wunderground v.1.15,2013-09-25 21:40:00,
2013-09-25 17:47:00,74.5,53.0,29.89,NNW,337,0.0,-999.0,48,-99.99,,,0.00,weatherlink.com 1.10,2013-09-25 21:47:00,
2013-09-25 17:55:00,73.5,53.7,29.89,NNW,337,0.0,0.0,50,0.00,,,0.00,Wunderground v.1.15,2013-09-25 21:55:00,
2013-09-25 18:03:00,72.7,54.0,29.89,NNW,337,0.0,-999.0,52,-99.99,,,0.00,weatherlink.com 1.10,2013-09-25 22:03:00,
2013-09-25 18:10:00,71.9,53.8,29.89,NNW,337,0.0,0.0,53,0.00,,,0.00,Wunderground v.1.15,2013-09-25 22:10:00,
2013-09-25 18:15:00,71.2,53.2,29.89,NNW,337,0.0,0.0,53,0.00,,,0.00,Wunderground v.1.15,2013-09-25 22:15:00,
2013-09-25 18:17:00,71.0,54.0,29.89,NNW,337,0.0,-999.0,55,-99.99,,,0.00,weatherlink.com 1.10,2013-09-25 22:17:00,
2013-09-25 18:25:00,70.3,52.9,29.88,NNW,337,0.0,0.0,54,0.00,,,0.00,Wunderground v.1.15,2013-09-25 22:25:00,
2013-09-25 18:30:00,70.0,53.1,29.89,NNW,337,0.0,0.0,55,0.00,,,0.00,Wunderground v.1.15,2013-09-25 22:30:00,
2013-09-25 18:33:00,69.6,53.0,29.89,NNW,337,0.0,-999.0,56,-99.99,,,0.00,weatherlink.com 1.10,2013-09-25 22:33:00,
2013-09-25 18:40:00,69.1,53.2,29.89,NNW,337,0.0,0.0,57,0.00,,,0.00,Wunderground v.1.15,2013-09-25 22:40:00,
2013-09-25 18:48:00,68.4,53.0,29.89,NNW,337,0.0,-999.0,59,-99.99,,,0.00,weatherlink.com 1.10,2013-09-25 22:48:00,
2013-09-25 18:55:00,67.7,53.8,29.89,NNW,337,0.0,0.0,61,0.00,,,0.00,Wunderground v.1.15,2013-09-25 22:55:00,
2013-09-25 19:00:00,67.0,53.5,29.89,NNW,337,0.0,0.0,62,0.00,,,0.00,Wunderground v.1.15,2013-09-25 23:00:00,
2013-09-25 19:03:00,66.5,52.0,29.89,NNW,337,0.0,-999.0,61,-99.99,,,0.00,weatherlink.com 1.10,2013-09-25 23:03:00,
2013-09-25 19:05:00,66.2,52.3,29.89,NNW,337,0.0,0.0,61,0.00,,,0.00,Wunderground v.1.15,2013-09-25 23:05:00,
2013-09-25 19:10:00,65.6,51.8,29.89,NNW,337,0.0,0.0,61,0.00,,,0.00,Wunderground v.1.15,2013-09-25 23:10:00,
2013-09-25 19:18:00,64.6,52.0,29.90,NNW,337,0.0,-999.0,63,-99.99,,,0.00,weatherlink.com 1.10,2013-09-25 23:18:00,
2013-09-25 19:20:00,64.4,52.0,29.90,NNW,337,0.0,5.0,64,0.00,,,0.00,Wunderground v.1.15,2013-09-25 23:20:00,
2013-09-25 19:25:00,63.7,51.7,29.89,NNW,337,0.0,5.0,65,0.00,,,0.00,Wunderground v.1.15,2013-09-25 23:25:00,
2013-09-25 19:30:00,63.1,52.0,29.90,NNW,337,0.0,5.0,67,0.00,,,0.00,Wunderground v.1.15,2013-09-25 23:30:00,
2013-09-25 19:33:00,62.7,52.0,29.89,NNW,337,0.0,-999.0,67,-99.99,,,0.00,weatherlink.com 1.10,2013-09-25 23:33:00,
2013-09-25 19:40:00,61.9,51.2,29.89,NNW,337,0.0,5.0,68,0.00,,,0.00,Wunderground v.1.15,2013-09-25 23:40:00,
2013-09-25 19:48:00,61.0,52.0,29.90,NNW,337,0.0,-999.0,71,-99.99,,,0.00,weatherlink.com 1.10,2013-09-25 23:48:00,
2013-09-25 19:50:00,60.8,51.3,29.90,NNW,337,0.0,5.0,71,0.00,,,0.00,Wunderground v.1.15,2013-09-25 23:50:00,
2013-09-25 19:55:00,60.4,51.3,29.90,NNW,337,0.0,5.0,72,0.00,,,0.00,Wunderground v.1.15,2013-09-25 23:55:00,
2013-09-25 20:00:00,59.9,50.8,29.90,NNW,337,0.0,5.0,72,0.00,,,0.00,Wunderground v.1.15,2013-09-26 00:00:00,
2013-09-25 20:10:00,59.0,50.7,29.91,NNW,337,0.0,5.0,74,0.00,,,0.00,Wunderground v.1.15,2013-09-26 00:10:00,
2013-09-25 20:15:00,58.6,50.3,29.91,NNW,337,0.0,5.0,74,0.00,,,0.00,Wunderground v.1.15,2013-09-26 00:15:00,
2013-09-25 20:18:00,58.3,50.0,29.91,NNW,337,0.0,-999.0,75,-99.99,,,0.00,weatherlink.com 1.10,2013-09-26 00:18:00,
2013-09-25 20:25:00,57.7,50.2,29.91,NNW,337,0.0,5.0,76,0.00,,,0.00,Wunderground v.1.15,2013-09-26 00:25:00,
2013-09-25 20:30:00,57.2,50.1,29.91,NNW,337,0.0,5.0,77,0.00,,,0.00,Wunderground v.1.15,2013-09-26 00:30:00,
2013-09-25 20:33:00,56.9,50.0,29.91,NNW,337,0.0,-999.0,77,-99.99,,,0.00,weatherlink.com 1.10,2013-09-26 00:33:00,
2013-09-25 20:40:00,56.4,49.6,29.92,NNW,337,0.0,5.0,78,0.00,,,0.00,Wunderground v.1.15,2013-09-26 00:40:00,
2013-09-25 20:45:00,56.0,49.6,29.92,NNW,337,0.0,5.0,79,0.00,,,0.00,Wunderground v.1.15,2013-09-26 00:45:00,
2013-09-25 20:48:00,55.8,49.0,29.92,NNW,337,0.0,-999.0,78,-99.99,,,0.00,weatherlink.com 1.10,2013-09-26 00:48:00,
2013-09-25 20:55:00,55.3,48.9,29.92,NNW,337,0.0,5.0,79,0.00,,,0.00,Wunderground v.1.15,2013-09-26 00:55:00,
2013-09-25 21:04:00,54.6,49.0,29.92,NNW,337,0.0,-999.0,80,-99.99,,,0.00,weatherlink.com 1.10,2013-09-26 01:04:00,
2013-09-25 21:34:00,52.8,48.0,29.93,NNW,337,0.0,-999.0,83,-99.99,,,0.00,weatherlink.com 1.10,2013-09-26 01:34:00,
2013-09-25 21:49:00,51.9,47.0,29.93,NNW,337,0.0,-999.0,84,-99.99,,,0.00,weatherlink.com 1.10,2013-09-26 01:49:00,
2013-09-25 22:04:00,51.0,47.0,29.94,NNW,337,0.0,-999.0,86,-99.99,,,0.00,weatherlink.com 1.10,2013-09-26 02:04:00,
2013-09-25 22:19:00,50.3,47.0,29.94,NNW,337,0.0,-999.0,87,-99.99,,,0.00,weatherlink.com 1.10,2013-09-26 02:19:00,
2013-09-25 22:34:00,49.7,46.0,29.94,NNW,337,0.0,-999.0,87,-99.99,,,0.00,weatherlink.com 1.10,2013-09-26 02:34:00,
2013-09-25 22:49:00,49.1,45.0,29.94,NNW,337,0.0,-999.0,87,-99.99,,,0.00,weatherlink.com 1.10,2013-09-26 02:49:00,
2013-09-25 23:04:00,48.4,45.0,29.95,NNW,337,0.0,-999.0,88,-99.99,,,0.00,weatherlink.com 1.10,2013-09-26 03:04:00,
2013-09-25 23:19:00,47.8,45.0,29.95,NNW,337,0.0,-999.0,89,-99.99,,,0.00,weatherlink.com 1.10,2013-09-26 03:19:00,
2013-09-25 23:34:00,47.4,44.0,29.95,NNW,337,0.0,-999.0,89,-99.99,,,0.00,weatherlink.com 1.10,2013-09-26 03:34:00,
2013-09-25 23:49:00,47.0,44.0,29.96,NNW,337,0.0,-999.0,89,-99.99,,,0.00,weatherlink.com 1.10,2013-09-26 03:49:00,